Temperature
17 17 18 18 17 17 17 17 17 18 18 18 18 18 18 18 18 17 17 18 18 18 18 18 18 17 17 17 17 17 17 17 17 17 16 16 16 16 16 16 16 16 16
17 17 17 17 17 17 17 17 17 17 18 18 18 18 18 18 18 17 17 17 17 17 18 18 18 17 17 17 17 17 17 17 17 17 17 16 16 16 16 16 16 16 16
17 17 17 17 17 17 17 17 17 17 17 17 17 17 18 18 17 17 17 17 17 17 17 17 17 17 17 17 17 17 17 17 17 17 17 17 16 16 16 16 16 16 16
17 17 17 17 17 17 17 17 17 17 17 17 17 17 17 17 17 17 17 17 17 17 17 17 17 17 17 17 17 17 17 17 17 17 17 17 16 16 16 16 16 16 16
17 17 17 17 17 17 17 17 17 17 17 17 17 17 17 17 17 17 17 17 17 17 17 17 17 17 17 17 17 17 17 17 17 17 17 17 16 16 16 16 16 16 16
17 17 17 17 17 17 17 16 16 16 16 17 17 17 17 17 17 17 17 17 17 17 17 17 16 17 16 16 17 17 17 17 17 17 17 17 17 16 16 16 16 16 16
16 16 16 16 16 16 16 16 16 16 16 16 17 17 17 17 17 17 17 17 17 17 17 16 16 16 16 16 16 16 16 17 16 17 17 17 17 16 16 16 16 16 16
16 16 16 16 16 16 16 16 16 16 16 16 16 17 17 17 17 17 17 17 17 17 16 16 16 16 16 16 16 16 16 16 16 16 16 16 16 16 16 16 16 16 16
16 16 16 16 16 16 16 16 15 16 16 16 16 16 16 16 17 17 17 17 17 16 16 16 16 16 16 16 16 16 16 16 16 16 16 16 16 16 16 16 16 16 16
16 16 15 15 16 15 15 15 15 15 15 16 16 16 16 16 16 16 17 16 16 16 16 16 16 15 15 15 15 15 15 16 16 16 16 16 16 16 16 16 16 16 16
15 15 15 15 15 15 15 15 15 15 15 15 15 16 16 16 16 16 16 16 16 16 16 16 15 15 15 15 15 15 15 15 15 15 15 15 15 15 15 15 16 16 16
15 15 15 15 15 15 15 15 15 15 15 15 15 15 15 15 15 16 16 16 16 16 16 16 15 15 15 15 15 15 15 15 15 15 15 15 15 15 15 15 15 15 15
15 15 15 15 15 15 15 14 14 14 14 15 15 14 14 15 15 15 15 15 15 15 16 16 15 15 15 15 14 14 14 14 14 15 15 15 15 15 15 15 15 15 15
16 15 15 15 14 14 14 14 14 14 14 14 14 14 14 14 14 14 14 14 14 15 15 15 15 15 14 14 14 14 14 14 14 14 14 14 15 15 15 15 15 15 15
16 15 15 15 14 14 14 14 14 14 14 14 14 14 14 14 14 14 14 14 14 14 14 15 15 14 14 14 13 13 13 13 13 13 14 14 14 14 14 15 15 15 15
15 15 15 15 14 14 14 14 14 14 14 14 14 14 14 13 13 13 13 13 13 13 13 14 14 14 14 13 13 13 13 13 13 13 13 13 14 14 14 14 14 14 15
15 15 15 15 14 14 14 14 14 14 14 13 13 13 13 13 13 13 13 13 13 13 13 13 13 13 13 13 13 13 13 13 13 13 13 13 13 13 14 14 14 14 14
15 15 15 15 14 14 14 14 14 14 14 13 13 13 13 13 13 13 13 13 13 13 13 13 13 13 13 13 13 13 13 12 13 13 13 13 13 13 13 13 14 14 14
15 15 15 15 15 14 14 14 14 14 14 13 13 13 13 13 13 13 13 13 13 13 12 12 13 13 13 13 13 12 12 12 12 12 13 13 13 13 13 13 13 13 13
15 15 15 15 15 15 14 14 14 14 14 14 13 13 13 13 13 13 13 13 12 12 12 12 12 12 13 13 13 12 12 12 12 12 12 13 13 13 13 13 13 13 13
16 16 15 15 15 15 15 15 14 14 14 14 14 14 13 13 13 13 13 13 12 12 12 12 12 12 12 12 12 12 12 12 12 12 12 12 12 12 12 12 12 13 13
16 16 16 16 15 15 15 15 15 15 14 14 14 14 13 13 13 13 13 13 13 12 12 12 12 12 12 12 12 11 11 11 11 12 12 12 12 12 12 12 12 12 12
16 16 16 16 16 15 15 15 15 15 14 14 14 14 14 13 13 13 13 13 12 12 12 12 12 12 12 12 11 11 11 11 11 11 11 11 12 11 12 12 12 12 12
16 16 16 16 16 16 15 15 15 15 14 14 14 14 14 13 13 13 13 12 12 12 12 12 12 12 12 12 11 11 11 11 11 11 11 11 11 11 11 11 12 12 12
16 16 16 16 16 15 15 15 15 14 14 14 14 14 13 13 13 13 13 13 12 12 12 12 12 12 12 12 11 11 11 10 10 11 11 11 11 11 11 11 11 12 12
16 16 15 15 15 15 15 15 14 14 14 14 14 13 13 13 13 13 13 13 13 13 12 12 12 12 12 12 11 11 11 10 10 10 11 11 11 11 11 11 11 11 11
Wind_Speed
2 3 2 2 3 5 4 2 1 1 1 2 3 3 4 4 3 5 10 14 13 12 11 10 10 11 11 11 11 10 10 10 10 10 9 10 10 10 9 9 9 9 9
4 3 2 1 2 4 3 2 2 1 0 1 1 2 3 4 3 3 6 10 12 12 12 11 11 11 12 12 12 12 12 11 11 11 11 10 10 10 10 10 10 9 10
5 3 3 2 2 5 5 3 2 1 1 1 1 2 2 1 2 2 2 5 8 12 13 12 12 12 12 12 13 13 13 13 13 13 12 12 12 12 12 11 11 11 11
4 3 3 2 3 3 4 3 2 1 0 0 1 2 1 1 2 3 3 4 5 6 11 13 13 13 13 13 14 14 14 14 14 14 14 14 13 13 13 13 13 13 12
4 3 3 3 1 1 2 2 3 1 0 1 3 2 2 2 1 3 2 3 4 5 7 12 15 14 13 14 15 15 16 16 16 15 15 15 15 15 15 15 15 15 14
5 3 4 3 1 2 3 2 2 1 1 1 4 1 2 2 2 1 2 3 5 5 5 6 10 12 14 14 15 16 16 16 17 17 16 16 16 16 17 16 16 16 16
5 3 4 2 1 3 3 1 1 2 1 0 2 2 3 4 4 3 2 1 1 1 2 4 5 5 8 14 15 15 15 16 16 17 17 17 17 17 18 18 18 19 18
5 5 3 2 3 3 2 1 0 1 1 1 1 2 1 1 1 2 3 3 1 1 0 3 4 5 4 6 10 13 13 14 16 16 16 17 18 19 19 20 20 20 21
5 4 4 2 2 2 3 1 1 1 2 0 1 2 2 2 2 0 0 2 3 1 1 1 3 4 5 5 6 10 12 13 14 16 16 16 18 20 21 21 21 22 22
5 5 4 3 1 2 3 1 3 1 1 2 1 1 1 2 1 1 2 1 1 2 2 1 1 0 2 3 5 6 9 10 11 12 13 15 17 19 20 21 22 23 23
4 5 5 3 1 2 3 3 3 3 3 3 3 2 1 0 2 2 1 1 2 1 2 1 1 1 0 1 3 3 4 6 7 9 10 12 15 18 20 21 22 23 23
4 5 5 3 2 3 3 3 2 2 2 4 4 4 3 2 3 2 3 2 2 1 0 1 1 1 1 4 5 4 4 4 4 6 7 8 10 14 18 19 21 22 22
5 5 5 3 3 3 3 2 1 2 2 2 2 3 3 3 3 3 3 4 4 3 1 1 1 2 1 5 6 3 2 4 4 5 6 8 9 11 14 17 19 20 21
6 7 6 4 4 3 3 3 1 2 2 0 1 1 3 3 2 2 2 3 4 4 3 1 1 2 2 3 4 1 2 5 5 6 7 8 9 10 11 13 16 18 19
8 7 6 5 4 3 2 2 1 1 2 1 1 1 2 2 2 2 2 2 3 4 4 3 1 1 1 1 2 3 4 6 8 10 11 11 11 11 11 11 12 14 15
7 7 5 5 4 4 3 2 2 3 2 1 2 0 1 3 2 2 2 2 2 3 4 4 3 2 2 4 4 5 7 9 12 15 16 15 14 14 13 13 13 14 15
7 6 5 5 5 5 4 3 3 2 3 3 2 2 2 2 2 4 3 3 3 3 4 4 4 3 3 4 4 7 11 12 13 16 18 19 18 17 16 15 15 16 16
7 6 6 5 6 6 5 4 5 4 4 4 4 3 3 4 3 3 3 4 4 4 4 6 5 5 5 5 5 5 8 12 11 13 16 19 21 20 19 19 18 18 18
7 7 6 6 6 5 5 5 5 4 4 4 3 4 4 4 4 3 4 5 4 5 4 5 6 5 5 5 5 6 7 6 11 14 15 18 22 22 22 22 22 21 20
8 7 7 7 6 6 6 6 6 5 5 4 4 4 5 5 5 5 5 5 5 5 6 6 6 6 5 5 3 4 5 5 6 9 10 11 15 22 25 25 25 24 23
10 8 8 7 7 7 8 8 7 7 6 6 6 6 7 7 7 6 7 4 5 4 5 5 6 6 5 4 4 4 5 5 5 5 5 6 6 7 13 20 24 25 25
9 9 8 8 8 8 7 7 6 5 4 5 6 6 7 8 10 13 13 11 9 8 7 6 7 7 7 6 4 5 5 6 6 4 4 6 5 6 5 10 17 23 26
9 9 9 8 8 7 8 9 8 5 6 6 7 6 9 9 7 7 11 15 15 17 15 10 10 10 10 8 7 7 7 7 7 6 7 9 7 8 7 15 18 18 21
9 8 8 8 8 9 12 11 10 7 7 8 8 9 9 9 10 8 8 8 9 11 13 13 13 14 13 10 9 9 9 9 9 8 9 10 8 8 10 9 15 17 19
8 8 8 8 8 9 12 13 12 7 8 10 10 11 11 11 12 13 9 9 10 9 13 17 17 17 19 18 12 7 8 8 10 8 7 8 8 7 7 7 11 17 20
8 8 8 9 9 9 12 14 13 8 8 8 9 10 13 13 13 13 10 9 11 11 10 11 10 12 14 16 19 14 11 11 11 9 7 7 7 6 6 6 6 7 10
Wind_Direction
126 114 105 132 142 129 136 145 149 83 347 333 325 359 347 18 25 103 145 161 164 166 172 179 187 191 189 188 185 184 185 186 184 183 182 179 176 173 172 170 166 165 163
124 129 142 134 120 124 128 155 139 137 281 315 324 340 332 345 356 83 143 165 174 177 182 189 194 197 197 196 194 194 195 195 193 193 193 192 189 186 185 182 179 177 176
135 150 147 159 143 146 152 153 147 161 204 271 312 303 267 304 342 8 132 163 182 192 193 195 198 201 203 205 204 203 202 203 200 200 201 202 200 198 196 193 191 189 188
149 161 150 143 159 162 147 143 136 132 118 289 271 273 273 206 223 229 229 198 193 195 198 203 205 206 208 209 210 208 206 208 208 207 208 209 208 207 206 204 202 199 198
145 130 104 96 149 123 94 97 88 75 288 294 264 235 260 229 193 241 225 221 210 198 198 207 209 210 211 214 215 213 211 211 212 212 213 215 215 214 213 212 211 208 206
125 116 114 109 122 94 81 76 81 179 243 260 295 267 238 237 210 210 252 237 203 209 208 203 204 216 219 219 219 218 215 214 215 216 217 219 220 220 218 217 218 216 213
126 105 104 119 90 94 94 92 67 239 227 42 318 292 240 205 193 183 204 282 210 192 182 185 204 215 213 221 224 222 219 217 218 219 221 223 224 224 223 222 222 221 219
142 135 110 141 104 113 116 122 79 319 296 99 318 311 285 141 277 189 170 186 131 47 313 223 203 210 220 210 216 221 223 224 223 223 225 228 229 229 228 227 226 224 223
140 104 111 87 93 126 112 94 15 358 356 342 61 6 357 25 338 138 144 129 137 160 228 240 219 206 212 212 207 216 224 229 231 231 231 232 233 232 231 231 230 228 227
140 130 118 98 75 91 113 178 101 358 343 328 102 103 90 71 347 346 312 102 163 198 197 273 11 260 240 208 199 199 216 228 237 239 239 238 236 234 235 236 234 231 230
148 141 130 119 112 90 88 59 66 21 357 2 359 9 28 177 241 255 296 318 272 201 154 144 131 119 208 168 135 139 189 215 236 245 250 250 245 240 237 238 238 235 233
163 150 141 135 126 101 94 82 63 66 43 30 3 354 355 353 352 343 333 313 313 335 101 107 161 148 181 120 111 117 169 195 227 246 254 260 259 251 246 241 240 239 237
157 146 133 129 113 105 116 111 105 61 54 38 352 336 354 356 359 355 341 333 337 310 260 204 169 152 144 104 105 90 175 196 222 246 258 265 265 262 254 244 241 240 239
136 136 132 144 142 156 148 122 179 162 130 121 300 11 329 320 345 353 349 343 327 314 312 287 126 124 96 106 131 229 249 228 240 250 259 265 269 265 261 251 245 244 242
136 139 146 150 150 144 115 129 207 90 119 234 280 188 275 316 327 338 342 330 319 318 320 330 26 84 108 131 184 250 274 254 250 252 255 257 259 260 258 256 253 250 249
117 141 154 158 162 159 169 205 221 179 165 204 238 316 325 316 336 333 304 294 292 294 298 321 320 343 16 316 290 297 293 278 259 254 250 249 251 252 253 254 253 252 251
139 155 167 171 175 178 183 200 252 185 201 233 256 235 232 275 308 317 310 300 282 283 285 297 312 319 303 279 276 278 280 271 262 258 249 243 243 244 246 248 250 250 251
165 174 180 186 194 191 188 204 237 228 218 228 240 255 257 258 236 261 288 296 293 286 274 283 292 289 280 270 252 249 271 277 276 274 254 242 239 239 241 244 246 247 248
181 183 188 196 209 201 192 208 231 246 248 247 247 251 257 267 266 258 269 276 283 287 278 276 281 275 270 271 270 271 272 270 275 277 264 244 239 239 241 243 245 245 246
187 190 193 200 209 214 210 210 217 230 242 250 254 255 258 258 259 259 264 261 267 276 278 275 273 274 269 266 264 268 280 271 276 285 286 272 247 241 241 243 245 245 245
196 192 196 202 211 218 221 215 216 226 227 238 246 247 249 246 244 246 260 269 281 279 280 283 284 286 283 292 288 287 288 287 277 278 277 275 260 242 241 244 246 246 244
200 194 199 206 214 226 203 196 208 249 248 249 252 253 256 246 238 232 237 242 243 255 266 273 281 283 289 294 299 294 292 293 290 290 302 293 288 277 260 255 245 238 239
199 203 204 211 218 211 193 192 203 228 256 262 262 261 266 269 258 240 233 235 242 244 240 246 260 266 272 277 286 291 286 284 282 285 291 281 274 273 267 271 267 252 237
199 205 209 215 222 220 204 203 204 222 247 258 260 258 258 263 267 261 260 252 242 244 239 237 241 249 254 256 257 262 268 272 268 262 252 263 263 260 266 266 266 259 245
199 204 208 216 223 224 210 208 204 224 240 249 252 253 250 252 250 244 246 254 259 260 258 251 235 238 243 249 250 258 262 267 273 270 257 259 265 263 261 262 261 257 247
202 208 213 215 221 225 213 209 204 226 245 253 254 251 249 247 249 239 240 248 256 259 265 272 264 254 250 250 244 237 244 254 263 270 259 260 268 275 276 262 259 258 251
Height
1553 1555 1556 1558 1559 1560 1561 1562 1563 1564 1565 1566 1566 1567 1568 1569 1569 1569 1570 1572 1573 1574 1575 1577 1578 1579 1581 1582 1583 1585 1586 1588 1589 1591 1593 1594 1595 1597 1598 1600 1601 1603 1604
1552 1554 1555 1557 1558 1559 1560 1561 1562 1563 1564 1565 1565 1566 1567 1568 1569 1569 1570 1571 1572 1573 1574 1576 1577 1578 1580 1581 1583 1584 1586 1587 1589 1590 1592 1593 1595 1596 1598 1599 1601 1602 1604
1551 1553 1554 1556 1557 1558 1559 1560 1561 1562 1563 1564 1564 1565 1566 1567 1567 1568 1569 1570 1571 1572 1573 1574 1576 1577 1578 1580 1581 1583 1584 1586 1588 1589 1591 1592 1594 1595 1597 1599 1600 1601 1603
1550 1552 1553 1555 1556 1557 1559 1560 1560 1561 1562 1562 1563 1563 1564 1565 1566 1567 1568 1569 1570 1571 1572 1572 1574 1575 1577 1578 1579 1581 1582 1584 1586 1587 1589 1591 1592 1594 1596 1597 1599 1600 1602
1549 1551 1552 1554 1555 1557 1558 1559 1559 1559 1560 1561 1562 1563 1563 1564 1565 1565 1566 1567 1568 1569 1570 1570 1572 1573 1574 1575 1577 1578 1580 1582 1583 1585 1587 1588 1590 1592 1593 1595 1597 1598 1600
1549 1550 1552 1553 1554 1555 1556 1557 1558 1559 1559 1560 1561 1561 1562 1562 1563 1564 1564 1566 1566 1567 1568 1568 1569 1570 1571 1573 1574 1575 1577 1579 1580 1582 1584 1586 1587 1589 1591 1593 1594 1596 1597
1548 1550 1551 1552 1553 1554 1555 1556 1557 1558 1559 1559 1560 1560 1560 1561 1561 1562 1563 1564 1565 1565 1566 1567 1567 1568 1569 1570 1571 1572 1574 1575 1577 1578 1580 1582 1584 1586 1588 1590 1591 1593 1595
1548 1550 1550 1551 1552 1553 1554 1555 1556 1557 1558 1559 1559 1559 1559 1561 1560 1561 1562 1562 1563 1564 1564 1565 1565 1566 1566 1567 1568 1569 1570 1572 1573 1574 1576 1578 1580 1581 1583 1585 1587 1589 1591
1547 1548 1549 1551 1552 1553 1553 1554 1555 1556 1557 1558 1559 1559 1559 1559 1560 1561 1561 1562 1562 1562 1563 1563 1564 1564 1564 1565 1565 1566 1567 1568 1569 1570 1572 1574 1575 1577 1578 1581 1582 1584 1586
1547 1548 1549 1550 1551 1552 1552 1554 1554 1555 1557 1558 1558 1559 1560 1560 1560 1561 1562 1561 1561 1561 1562 1562 1562 1562 1562 1562 1563 1563 1564 1564 1565 1566 1567 1569 1570 1572 1573 1575 1577 1579 1581
1546 1547 1548 1549 1550 1551 1551 1552 1553 1554 1555 1556 1557 1558 1559 1559 1560 1561 1561 1561 1561 1561 1560 1560 1560 1560 1560 1560 1560 1560 1561 1561 1562 1563 1563 1564 1565 1566 1568 1570 1571 1573 1576
1545 1546 1548 1548 1549 1550 1551 1551 1552 1553 1554 1555 1556 1557 1558 1559 1559 1559 1560 1559 1559 1560 1559 1559 1559 1559 1559 1558 1558 1558 1558 1558 1559 1559 1559 1559 1560 1561 1562 1564 1565 1567 1569
1544 1546 1547 1547 1548 1549 1550 1551 1551 1552 1553 1554 1554 1555 1556 1557 1558 1558 1558 1558 1558 1558 1558 1557 1557 1557 1557 1556 1556 1556 1556 1555 1555 1555 1555 1555 1555 1556 1557 1558 1559 1561 1562
1543 1544 1545 1546 1547 1548 1550 1550 1551 1552 1552 1553 1554 1554 1555 1556 1556 1557 1557 1557 1557 1556 1556 1556 1555 1555 1555 1554 1554 1553 1553 1552 1551 1551 1551 1551 1551 1551 1551 1552 1554 1555 1556
1542 1543 1544 1545 1546 1547 1548 1549 1550 1551 1551 1552 1553 1553 1553 1554 1555 1555 1555 1556 1557 1555 1555 1555 1554 1554 1553 1552 1551 1550 1549 1549 1548 1547 1547 1547 1547 1547 1547 1547 1548 1549 1550
1540 1541 1543 1544 1545 1546 1547 1548 1549 1550 1550 1551 1551 1552 1552 1553 1553 1553 1554 1554 1554 1554 1553 1553 1552 1552 1550 1550 1549 1547 1546 1545 1544 1543 1543 1542 1542 1542 1542 1542 1543 1544 1545
1538 1540 1541 1542 1544 1545 1546 1547 1548 1549 1549 1550 1550 1551 1551 1551 1551 1551 1552 1552 1552 1552 1550 1550 1549 1549 1547 1546 1545 1543 1542 1541 1540 1539 1538 1538 1538 1537 1537 1537 1537 1538 1539
1536 1538 1540 1541 1542 1543 1544 1545 1546 1548 1548 1548 1549 1549 1549 1549 1549 1549 1549 1549 1549 1548 1548 1546 1545 1545 1544 1543 1541 1540 1538 1537 1536 1535 1534 1534 1533 1533 1532 1532 1532 1532 1532
1534 1536 1538 1539 1541 1542 1543 1544 1544 1545 1546 1546 1546 1546 1547 1547 1546 1546 1546 1545 1545 1545 1544 1543 1542 1541 1540 1539 1538 1536 1535 1533 1532 1531 1530 1529 1528 1528 1527 1526 1526 1526 1526
1532 1534 1536 1537 1539 1540 1541 1542 1542 1543 1543 1544 1544 1544 1544 1543 1543 1543 1543 1542 1541 1541 1540 1539 1538 1537 1536 1535 1534 1532 1530 1530 1528 1527 1526 1525 1523 1523 1522 1521 1521 1520 1520
1530 1532 1533 1535 1536 1537 1538 1539 1540 1541 1541 1541 1541 1540 1540 1540 1540 1540 1539 1539 1538 1537 1536 1535 1534 1533 1532 1531 1530 1528 1526 1525 1523 1523 1521 1520 1519 1517 1516 1515 1515 1514 1514
1527 1529 1530 1532 1533 1535 1536 1537 1537 1538 1538 1538 1537 1537 1537 1536 1536 1535 1535 1534 1534 1533 1531 1530 1529 1528 1527 1526 1525 1523 1522 1520 1518 1518 1516 1514 1513 1511 1510 1510 1509 1508 1508
1524 1525 1527 1529 1530 1531 1532 1533 1534 1534 1534 1533 1533 1533 1533 1533 1532 1531 1530 1529 1529 1528 1527 1526 1524 1522 1521 1521 1520 1518 1516 1514 1512 1511 1510 1506 1506 1504 1504 1503 1503 1502 1501
1520 1522 1523 1525 1526 1527 1528 1529 1530 1530 1529 1529 1528 1528 1528 1527 1527 1527 1526 1524 1523 1522 1521 1520 1518 1516 1516 1515 1514 1512 1510 1508 1505 1504 1504 1501 1499 1498 1497 1497 1496 1495 1495
1516 1518 1519 1520 1521 1523 1524 1524 1525 1525 1524 1524 1523 1523 1522 1522 1521 1521 1520 1518 1517 1515 1515 1514 1512 1510 1509 1508 1507 1506 1504 1502 1498 1497 1498 1496 1493 1492 1491 1490 1489 1488 1488
1512 1514 1515 1516 1517 1518 1519 1519 1520 1520 1519 1518 1518 1518 1518 1517 1516 1515 1514 1512 1510 1508 1508 1506 1505 1503 1502 1500 1500 1498 1497 1495 1492 1490 1490 1490 1488 1487 1484 1483 1482 1482 1481